RH
47 49 51 53 54 55 55 52 46 33 21 15 13 12 13 15 16 17 18 19 20 21 22 23 23 23 23 24 26 28 29 30 32 33 34 35 36 37 39 40 40 40
42 45 48 50 51 53 54 51 45 34 23 18 17 16 15 16 17 18 19 20 20 21 22 23 24 24 25 26 27 29 30 31 32 34 35 37 38 39 41 42 43 44
35 39 42 43 44 47 50 50 44 35 26 21 20 19 17 17 18 19 20 20 21 22 22 23 24 24 25 26 27 29 30 31 33 35 37 39 41 42 45 46 47 47
28 32 35 37 39 42 45 45 41 34 27 22 21 21 19 18 18 19 20 22 23 23 24 25 25 26 26 27 28 29 30 32 34 37 39 42 44 46 48 50 50 51
24 27 29 30 33 36 37 35 32 30 27 22 22 22 21 20 20 20 21 22 23 25 26 27 27 28 29 29 30 31 32 34 36 39 41 44 47 50 51 53 54 55
21 23 25 28 30 33 33 31 31 30 26 23 24 24 25 25 22 21 21 22 24 25 27 28 29 30 31 31 32 33 34 36 38 41 44 47 50 52 55 58 59 61
19 20 21 24 26 28 30 31 32 31 29 29 28 28 29 31 28 25 24 25 26 27 28 28 29 31 32 32 33 35 36 38 40 43 47 50 53 55 58 62 65 67
18 19 20 21 22 23 25 26 28 30 34 37 37 37 38 40 41 40 37 35 34 33 32 32 31 32 32 33 34 36 38 40 43 46 49 52 55 58 62 66 69 72
16 17 18 18 20 21 22 24 25 28 31 36 41 46 50 53 56 57 57 55 50 47 44 40 37 35 35 35 35 38 40 43 46 48 51 54 57 62 66 70 74 77
17 17 18 18 19 20 22 24 26 28 30 32 38 44 48 56 63 67 70 70 68 65 61 56 50 45 41 40 39 40 43 46 49 51 53 57 61 65 71 76 80 82
19 20 20 20 21 21 22 24 26 29 31 33 37 41 45 53 63 70 75 79 81 81 80 76 70 63 56 52 48 47 46 48 52 55 57 61 65 70 76 82 85 86
25 25 24 24 24 24 24 25 26 28 30 32 35 40 44 49 58 66 73 80 86 90 91 90 86 81 75 69 64 58 53 53 57 60 62 66 70 75 82 87 89 88
29 29 29 30 30 30 30 30 30 31 32 32 34 37 40 43 50 57 66 76 85 91 95 95 94 92 90 87 84 76 66 61 64 67 69 72 77 82 88 91 90 87
31 31 32 32 33 34 35 36 37 38 38 38 38 39 40 41 43 48 56 68 80 89 96 98 99 99 98 98 98 94 84 75 73 77 79 82 88 92 93 91 88 85
32 32 32 33 33 34 36 37 38 38 39 39 39 39 40 41 42 44 47 54 65 80 93 100 101 101 101 100 101 101 98 88 83 87 91 95 99 98 93 89 86 85
33 33 33 33 33 33 33 34 34 35 35 35 35 35 36 37 39 41 44 47 53 67 87 99 101 100 100 101 100 101 102 97 93 96 100 101 102 99 93 89 87 86
36 36 35 35 35 35 35 35 35 35 35 35 35 36 36 36 37 39 42 47 51 62 82 98 101 100 100 100 100 100 101 101 100 101 101 100 101 100 95 90 88 88
38 38 39 38 38 38 38 38 38 37 37 37 38 38 39 40 41 43 45 49 54 64 82 97 101 100 100 100 100 100 100 101 102 101 100 100 101 99 94 91 90 90
40 40 40 39 39 39 39 39 39 39 40 41 42 44 46 47 49 51 53 56 60 71 87 99 100 100 100 100 100 100 100 100 101 101 101 101 98 94 91 91 92 92
41 40 40 40 40 40 41 41 42 43 44 46 48 50 53 56 59 61 63 64 70 82 95 101 100 100 100 100 101 101 100 100 100 101 101 99 94 90 91 93 94 95
42 42 42 42 42 43 44 44 44 45 46 48 52 55 60 65 69 72 75 77 84 94 100 100 99 100 100 100 101 101 100 100 100 99 98 94 90 88 91 93 93 93
43 42 42 42 42 42 42 42 44 47 51 56 61 67 73 78 83 86 89 93 96 100 101 100 100 100 100 100 101 100 100 100 100 98 94 90 88 88 90 91 91 91
41 41 41 41 42 42 43 47 53 59 66 74 80 84 88 91 94 96 98 100 100 100 100 100 100 100 100 100 100 100 101 100 100 99 96 93 92 93 94 94 93 94
41 42 42 43 44 48 53 60 68 76 84 90 94 95 96 98 99 99 100 100 100 100 100 100 100 100 100 100 100 100 100 100 100 99 97 97 98 98 99 99 97 97
44 45 46 48 51 57 64 71 78 85 90 94 95 94 95 96 98 100 100 100 100 100 100 100 100 100 100 100 100 100 100 100 100 98 97 99 101 101 101 99 98 97
48 49 50 53 58 64 70 76 82 87 90 92 94 94 94 96 98 100 100 100 100 100 100 100 100 100 100 100 100 100 100 100 99 99 99 100 101 101 100 97 96 96
Wind_Speed
34 35 36 38 39 40 40 40 40 40 40 40 40 40 40 40 40 41 41 41 41 42 41 41 41 41 41 41 41 41 41 41 41 41 41 41 41 41 41 41 41 41
34 35 37 38 39 39 40 41 41 41 41 40 41 42 42 42 41 41 42 42 42 43 43 43 43 43 43 43 43 44 44 43 43 42 42 42 42 42 42 42 42 42
35 36 37 38 38 39 40 41 42 43 42 42 43 43 44 43 43 43 43 43 44 44 44 45 45 45 46 46 46 46 46 46 45 45 44 44 44 43 43 43 43 43
35 36 37 37 38 39 41 42 43 44 44 44 44 44 45 45 46 46 46 46 46 46 46 47 48 48 48 48 49 49 49 48 47 47 46 45 44 44 43 43 43 43
35 36 37 38 39 40 42 44 45 45 46 46 45 46 47 48 49 50 49 48 48 48 49 50 50 50 50 51 51 51 50 50 49 48 47 46 45 44 44 44 44 45
34 36 37 39 40 41 42 44 45 46 47 47 47 48 48 50 52 53 52 51 51 51 52 52 52 52 52 53 53 53 52 51 50 49 48 47 46 45 45 45 46 46
35 36 37 38 40 41 43 44 46 47 48 49 49 50 51 51 53 55 55 54 54 55 55 54 54 54 54 55 55 55 54 53 52 50 49 48 47 47 46 46 47 48
37 38 39 39 40 42 43 44 46 47 48 49 51 52 52 52 54 55 56 56 57 57 57 57 57 56 56 56 56 56 56 54 53 52 51 50 49 48 48 48 49 50
38 39 40 40 41 42 43 43 44 45 47 49 50 51 52 53 54 55 56 57 58 59 59 59 59 59 58 58 58 58 57 56 55 53 52 51 50 50 49 50 50 50
41 40 41 41 41 41 42 42 42 44 46 47 49 51 52 53 53 54 55 56 57 59 60 60 60 60 60 59 59 60 59 58 56 55 54 52 51 51 50 50 50 51
40 40 41 41 40 40 40 40 40 42 44 45 47 50 52 53 54 55 55 56 57 58 59 59 59 60 60 60 61 61 60 59 58 56 55 54 53 52 51 51 50 50
37 38 38 39 39 39 39 39 39 40 41 43 45 47 50 52 54 56 56 57 57 57 57 58 59 59 60 61 61 62 62 61 59 58 56 55 54 53 52 51 51 51
37 38 38 39 39 39 39 40 40 40 40 41 42 43 46 48 51 54 56 57 57 57 57 58 59 60 61 62 62 63 62 62 60 59 57 56 54 53 52 52 51 51
38 39 39 40 40 41 41 41 41 41 41 41 42 42 43 44 46 48 52 55 57 58 57 57 58 60 62 63 63 63 63 62 60 59 58 56 54 53 52 52 52 51
39 40 40 41 41 42 42 42 42 42 43 43 43 43 44 44 44 45 48 51 55 57 58 58 59 61 63 64 63 63 62 61 60 59 57 55 54 54 53 52 51 51
41 42 42 42 43 43 43 44 44 45 45 46 46 47 47 48 48 48 49 50 52 55 57 58 59 61 63 64 63 63 63 62 60 58 56 55 54 54 53 52 51 52
43 44 45 45 46 46 47 47 48 48 49 49 50 50 50 50 51 52 52 52 52 53 56 57 58 60 62 64 64 63 63 62 60 57 56 55 54 53 52 52 52 52
44 45 46 46 47 48 49 49 50 51 51 51 51 51 51 51 52 53 54 54 54 54 55 56 57 59 62 64 64 63 61 60 58 57 55 54 53 53 53 52 52 51
43 44 45 46 47 48 49 50 51 51 52 52 53 53 53 53 53 54 54 55 54 54 54 55 56 58 61 63 63 61 58 56 55 55 54 53 53 53 53 52 51 50
44 45 46 47 48 50 51 52 53 53 54 54 54 54 54 54 54 54 54 54 53 52 52 54 55 57 60 61 59 57 55 53 52 52 53 53 54 53 52 51 49 48
47 48 49 50 51 52 52 53 53 54 54 53 53 53 53 52 52 52 52 51 49 49 50 52 53 54 56 56 55 53 52 52 52 52 53 54 53 52 51 49 48 48
49 50 50 51 51 52 52 52 52 52 51 51 50 50 50 49 48 47 46 45 44 45 47 47 48 50 52 52 51 51 51 52 53 53 53 53 53 51 50 49 48 48
50 50 51 51 51 51 50 50 49 49 48 48 47 46 46 45 44 43 41 40 39 38 39 40 42 45 48 49 49 50 51 52 52 52 52 51 50 49 49 49 48 47
50 50 50 50 49 49 48 48 47 47 46 45 44 44 43 42 41 40 38 37 35 34 35 37 40 43 46 48 49 49 49 50 50 50 50 49 48 48 48 47 47 45
49 48 48 48 48 47 47 46 45 44 43 42 41 41 40 40 39 38 37 36 35 35 37 39 42 44 46 47 47 47 47 48 48 49 49 48 47 47 47 47 46 45
47 47 46 46 46 45 44 44 43 42 41 40 39 39 38 38 38 37 37 37 37 38 40 41 42 43 44 44 44 44 45 46 47 48 48 48 47 47 48 47 46 45
Wind_Direction
262 262 262 261 261 260 260 258 258 257 257 259 262 264 266 267 268 269 270 271 271 272 273 274 275 276 277 278 279 280 281 283 285 286 288 290 291 293 294 295 296 296
260 260 260 260 260 260 259 258 258 257 257 258 261 263 265 266 267 268 269 270 271 272 273 274 275 275 276 277 278 279 281 283 284 286 287 289 290 292 293 294 294 294
261 259 259 259 260 260 259 258 257 257 257 258 259 261 263 265 266 267 269 270 271 273 274 274 275 275 276 277 278 279 281 282 283 285 286 287 289 291 292 292 293 293
264 262 260 260 259 259 258 257 256 256 256 257 258 260 263 264 266 267 268 270 271 273 274 274 275 275 275 276 277 279 280 281 282 284 285 286 287 289 290 291 292 292
269 267 264 262 261 259 258 256 255 255 255 256 258 260 262 264 265 267 268 270 271 273 274 274 274 275 276 276 277 279 280 280 281 282 283 284 286 287 289 290 291 291
273 271 269 266 264 262 261 260 258 257 256 256 257 259 261 262 264 266 268 270 272 273 274 274 275 275 276 277 277 278 279 279 280 281 282 283 284 286 287 289 290 291
274 273 272 270 268 266 264 263 261 260 259 258 258 259 260 262 264 266 269 271 272 273 274 275 275 276 276 277 277 278 278 278 279 279 280 281 283 284 285 287 289 290
275 274 274 273 272 270 269 267 266 264 262 261 260 260 261 262 264 266 268 270 272 273 274 275 275 276 276 276 277 277 277 277 277 278 279 280 281 282 284 286 288 289
274 274 274 273 273 273 273 272 271 270 267 264 263 262 262 262 264 266 267 269 271 272 273 274 275 275 276 276 276 276 276 276 276 276 277 278 279 281 282 284 286 287
272 271 271 272 272 273 273 274 274 273 271 269 267 265 264 264 264 265 266 267 269 270 272 273 274 275 276 276 275 275 274 274 274 275 276 277 278 280 281 283 285 286
272 270 270 270 270 271 271 271 272 271 271 271 269 269 267 266 264 264 265 265 267 269 271 272 273 273 274 274 274 274 273 273 274 274 275 276 277 279 281 283 284 286
273 271 270 269 269 269 268 268 268 268 269 269 270 270 269 268 266 265 264 264 265 266 268 270 271 271 272 272 272 273 273 273 273 273 274 275 277 279 281 283 285 286
274 272 271 270 270 269 268 268 268 268 269 269 269 269 270 269 269 268 267 265 264 264 265 267 268 269 269 270 270 271 271 272 272 272 273 275 277 279 282 284 285 286
274 273 273 273 272 271 270 270 269 269 269 269 269 269 270 270 271 270 269 266 264 263 263 264 265 266 267 268 268 269 269 270 270 272 273 276 278 281 283 284 285 286
274 274 273 273 272 272 271 271 271 271 270 271 271 271 272 272 272 272 270 268 267 265 263 262 262 263 264 265 266 267 266 267 269 271 273 277 280 282 283 285 285 287
273 272 272 272 272 272 271 271 271 271 272 272 273 274 275 275 275 274 273 271 269 266 263 261 261 261 263 263 264 264 264 265 267 270 274 277 279 281 283 284 285 287
272 271 271 271 272 272 273 273 274 274 274 275 275 275 276 275 274 274 273 273 271 267 264 261 260 260 261 261 261 262 263 264 266 270 273 274 276 279 283 284 285 287
274 273 273 274 274 274 275 275 276 276 276 276 277 276 276 274 273 273 272 272 271 267 264 261 259 259 259 259 260 261 262 263 266 269 271 273 276 280 283 284 286 287
278 278 278 277 277 277 277 277 277 278 278 278 277 277 275 274 273 272 272 272 271 268 264 261 259 258 258 258 259 261 262 264 266 269 271 274 279 282 284 285 286 287
282 282 281 281 280 280 280 279 279 279 279 278 278 277 275 274 273 272 272 272 271 268 264 260 258 258 257 258 259 262 265 267 269 271 274 278 280 282 284 285 285 286
285 285 284 283 283 282 281 281 280 280 279 278 277 276 275 274 273 272 272 273 271 267 262 258 257 256 257 258 261 265 268 271 273 275 277 280 281 282 283 283 284 284
288 287 286 285 284 283 282 281 280 279 278 277 276 276 275 275 275 275 275 274 272 267 262 259 258 257 258 261 264 267 270 274 277 278 279 280 281 282 283 284 284 285
289 288 287 286 284 283 281 280 279 279 278 277 277 277 277 277 277 277 277 275 272 268 265 262 260 259 260 262 266 269 273 276 278 279 280 280 282 283 283 284 284 284
289 288 287 285 284 282 281 280 279 279 278 278 278 278 278 278 278 277 276 275 273 271 267 264 262 262 263 266 269 272 274 275 276 278 279 280 281 281 282 282 282 283
289 288 286 285 283 282 281 281 281 281 280 280 280 279 279 278 278 277 276 275 273 270 268 266 265 266 268 270 272 273 274 275 276 277 278 279 280 281 281 281 282 282
289 288 286 285 284 283 283 283 283 283 282 282 281 281 280 279 278 277 276 274 272 271 269 269 269 270 271 271 272 273 274 275 277 278 279 280 281 281 281 281 281 280